{"data":{"norad_id":62764,"intl_designator":"2025-015G","name":"STARLINK-33579","alt_names":[],"object_type":"PAYLOAD","status":"ACTIVE","operator":null,"country":"US","launch_date":"2025-01-21","launch_site_code":"AFWTR","launch_vehicle":null,"mission":null,"orbit_class":"UNKNOWN","rcs_meters":null,"size_class":null,"mass_kg":null,"dimensions":null,"purposes":["comms"],"wikipedia_slug":null,"has_3d_model":false,"image_url":null,"decayed_at":null,"tle_current":{"epoch":"2026-09-21T20:58:28.874784Z","epoch_age_seconds":52562,"freshness":"FRESH","line1":"1 62764U 25015G   26264.87394531  .00019153  00000+0  62698-3 0  9990","line2":"2 62764  53.1601 129.3722 0001505  89.1183 270.9991 15.31720688 94540","mean_motion":15.31720688,"eccentricity":0.0001505,"inclination_deg":53.1601,"raan_deg":129.3722,"arg_perigee_deg":89.1183,"mean_anomaly_deg":270.9991,"bstar":0.00062698,"rev_number":9454,"period_min":94.01191818335,"perigee_km":469.6475793617,"apogee_km":471.70907277485,"semimajor_km":6848.8153260683,"source":"CELESTRAK","updated_at":"2026-09-22T09:00:49.661644Z"}}}